sat.trackr.live / text

‹ back to catalog

STARLINK-34635

NORAD 64761 · 2025-147G

PAYLOAD ACTIVE UNKNOWN

§ Identity

Operator
Country
US
Launch date
2025-07-08
Launch site
AFETR
Launch vehicle
Mass (kg)
RCS (m²)

Purposes: comms

External: N2YO · Heavens-Above · Gunter

§ Orbital elements

Epoch: 2026-09-19T23:30:01.728288Z

Period
93.85 min
Inclination
53.1587°
Eccentricity
0.0001123
Mean motion
15.34423032 rev/d
Perigee alt
461.9 km
Apogee alt
463.4 km
Semi-major
6,840.8 km
B*
5.2274e-4
RAAN
56.3766°
Arg perigee
96.8356°
Mean anomaly
263.2774°
Rev number
6,855

§ Raw data

STARLINK-346351 64761U 25147G   26262.97918667  .00017339  00000+0  52274-3 0  99992 64761  53.1587  56.3766 0001123  96.8356 263.2774 15.34423032 68554

JSON: /api/v1/satellites/64761 · /tle

For live sub-satellite position, see the globe view (requires WebGL).

§ Visibility from observer

Set your observer location to see the next 7 days of passes ≥ 10°. The values pass through the URL so the page stays shareable.

No JS? Fill the form by hand. The geolocation button needs JavaScript.